Simultaneous Nadir Overpasses (SNOs) Predictions

Prediction of SNOs between METOP-A and NOAA-19 Satellite Orbit:

Table of predicted SNOs for the next 14.0 days since TLE Epoch: 1/6/2014
Index Date (METOP-A) Time (METOP-A) Lat,Lon (METOP-A) SZA (METOP-A ) Date (NOAA-19) Time (NOAA-19) Lat,Lon (NOAA-19) SZA (NOAA-19 ) Distance(km) Time Diff (sec)
1 01/06/2014 06:51:43 -74.32,-107.85 83.19 01/06/2014 06:50:34 -74.31,-110.26 83.10 72.74 69
2 01/06/2014 07:42:33 73.83, 58.29 96.36 01/06/2014 07:41:30 73.80, 58.27 96.34 3.53 63
3 01/06/2014 08:33:15 -73.80,-134.45 83.68 01/06/2014 08:32:27 -73.78,-134.41 83.69 2.97 48
4 01/06/2014 09:23:56 73.76, 32.78 96.29 01/06/2014 09:23:33 73.75, 32.88 96.28 3.40 23
5 01/06/2014 10:14:37 -73.78,-159.84 83.70 01/06/2014 10:14:31 -73.78,-159.92 83.71 2.44 6
6 01/06/2014 11:05:18 73.74, 7.39 96.26 01/06/2014 11:05:37 73.75, 7.38 96.26 0.71 19
7 01/06/2014 11:56:00 -73.71, 174.65 83.78 01/06/2014 11:56:34 -73.72, 174.69 83.77 1.99 34
8 01/06/2014 12:46:40 73.72, -18.00 96.23 01/06/2014 12:47:40 73.69, -18.01 96.20 2.94 60
9 01/06/2014 13:37:23 -73.64, 149.14 83.85 01/06/2014 13:38:37 -73.67, 149.31 83.84 6.20 74
10 01/16/2014 10:07:20 -74.43,-156.47 84.64 01/16/2014 10:06:13 -74.45,-159.42 84.50 87.97 67
11 01/16/2014 10:58:12 73.85, 9.39 94.82 01/16/2014 10:57:08 73.82, 9.41 94.81 2.76 64
12 01/16/2014 11:48:54 -73.82, 176.66 85.21 01/16/2014 11:48:04 -73.82, 176.69 85.21 0.89 50
13 01/16/2014 12:39:34 73.82, -16.00 94.79 01/16/2014 12:39:12 73.82, -16.10 94.79 3.06 22
14 01/16/2014 13:30:16 -73.80, 151.27 85.25 01/16/2014 13:30:08 -73.82, 151.18 85.22 3.44 8
15 01/16/2014 14:20:57 73.75, -41.51 94.71 01/16/2014 14:21:15 73.77, -41.49 94.72 2.15 18
16 01/16/2014 15:11:37 -73.77, 125.88 85.28 01/16/2014 15:12:10 -73.76, 125.79 85.29 3.00 33
17 01/16/2014 16:02:18 73.73, -66.91 94.68 01/16/2014 16:03:17 73.72, -66.88 94.66 1.36 59
18 01/16/2014 16:53:00 -73.70, 100.37 85.36 01/16/2014 16:54:13 -73.71, 100.39 85.36 1.56 73




NCC Satellite Simultaneous Nadir Overpasses (SN
